User: anonymous   Login
Location: Forst
(46.9333°N, 15.4333°E)
Time: 02:35:59
(UTC+00:00)
Language:

Lacrosse 4 Rocket - Orbit

View from above orbital plane
View from above orbital plane
View from above satellite
View from above satellite

Ground track
Ground track

The orbit data is extracted from the following two-line orbital elements,

1 26474U 00047B   21062.45969226  .00000270  00000-0  34055-4 0  9998
2 26474  67.9927  82.6947 0061172 272.4803  86.9337 14.96094715117982
Epoch (UTC): 03 March 2021 11:01:57
Eccentricity: 0.0061172
inclination: 67.9927°
perigee height: 536 km
apogee height: 621 km
right ascension of ascending node: 82.6947°
argument of perigee: 272.4803°
revolutions per day: 14.96094715
mean anomaly at epoch: 86.9337°
orbit number at epoch: 11798

The dashed part of the orbit path shows where the satellite is in the earth's shadow,  

DLR